#timestamp,LO_Frequency,Hit,StdDev 
1634922015.4,286047002.3,N
1634922035.2,286046998.2,N
1634922055.0,286046998.3,N
1634922055.9,286046998.3,N
1634922075.8,286047000.8,N
1634922095.6,286047001.0,N
1634922115.5,286046998.1,N
1634922135.3,286046998.7,N
1634922155.1,286047001.1,N
1634922175.9,286046998.9,N
1634922195.7,286046998.7,N
1634922215.5,286046999.0,N
1634922235.4,286046999.6,N
1634922255.2,286046996.9,N
1634922275.1,286046997.0,N
1634922276.0,286046997.0,N
1634922325.8,286046997.2,E
1634922335.8,286046999.5,N
1634922355.6,286046998.1,P
1634922375.4,286047001.1,N
1634922395.3,286047001.2,N
1634922415.1,286047002.6,N
1634922435.8,286047002.2,N
1634922455.7,286047001.4,N
1634922475.5,286047003.7,N
1634922495.4,286047003.7,N
1634922515.2,286047001.3,N
1634922535.0,286047002.1,N
1634922535.9,286047002.1,N
1634922555.8,286047002.0,N
1634922575.6,286047001.9,N
1634922595.4,286047002.2,N
1634922615.3,286047002.2,N
1634922635.1,286047001.9,N
1634922655.9,286047002.3,N
1634922675.7,286047001.4,N
1634922695.5,286047002.0,N
1634922715.4,286047001.9,N
1634922735.2,286047001.5,N
1634922755.1,286047000.1,N
1634922756.0,286047000.1,N
1634922775.8,286047000.4,N
1634922795.6,286047000.3,N
1634922815.5,286047000.2,N
1634922835.3,286047000.2,N
1634922855.1,286047000.4,N
1634922875.9,286047000.5,N
1634922895.7,286047001.0,N
1634922915.6,286047000.1,N
1634922935.4,286047002.8,N
1634922955.2,286047000.6,N
1634922975.1,286047000.3,N
1634922976.0,286047000.3,N
1634922995.8,286047002.8,N
1634923015.7,286047002.1,N
1634923035.5,286047002.3,N
1634923055.3,286047002.5,N
1634923075.2,286046999.9,N
1634923095.0,286047000.9,N
1634923095.9,286047000.9,N
1634923115.7,286047001.2,N
1634923135.6,286047000.9,N
1634923155.4,286047000.3,N
1634923175.3,286047000.6,N
1634923195.1,286047000.9,N
1634923215.8,286047000.6,N
1634923235.7,286047000.4,N
1634923255.5,286047002.1,N
1634923275.4,286047002.5,N
1634923295.2,286047001.4,N
1634923315.0,286047001.9,N
1634923315.9,286047001.9,N
1634923335.8,286047002.8,Y
1634923355.6,286047000.0,P
1634923375.5,286047001.1,N
1634923395.3,286047000.8,N
1634923415.1,286046998.2,Y
1634923435.9,286046998.7,P
1634923455.7,286046999.4,N
1634923475.5,286046997.8,N
1634923495.4,286046996.6,Y
1634923515.2,286046999.4,P
1634923535.1,286046998.9,P
1634923536.0,286046998.9,P
1634923555.8,286046996.7,Y
1634923575.6,286046998.4,P
1634923595.5,286046999.1,N
1634923615.3,286046999.2,N
1634923635.1,286046999.6,N
1634923655.9,286046999.4,N
1634923675.7,286046998.9,Y
1634923695.6,286047001.2,P
1634923745.4,286046998.7,E
1634923755.4,286047001.2,N
1634923775.2,286047000.6,P
1634923795.0,286047000.3,N
1634923795.9,286047000.3,N
1634923815.8,286047002.7,Y
1634923835.6,286047000.1,P
1634923855.4,286047002.4,P
1634923875.3,286047001.6,N
1634923895.1,286047001.8,N
1634923915.9,286047002.4,N
1634923935.7,286046999.8,N
1634923955.5,286047002.7,N
1634923975.4,286047000.1,N
1634923995.2,286047002.6,N
1634924015.0,286047002.4,N
1634924015.9,286047002.4,N
1634924035.8,286047000.0,N
1634924055.6,286046999.8,N
1634924075.5,286047000.2,N
1634924095.3,286047000.2,N
1634924115.1,286047002.8,N
1634924135.9,286047002.4,N
1634924155.3,286047002.3,N
1634924175.1,286046999.7,N
1634924195.8,286047000.2,N
1634924215.7,286046999.8,N
1634924235.5,286047000.9,N
1634924255.4,286046998.3,N
1634924275.2,286046998.1,N
1634924295.0,286047001.2,N
1634924295.9,286047001.2,N
1634924315.8,286047000.7,N
1634924335.6,286047000.0,N
1634924355.5,286046999.9,N
1634924375.3,286047002.6,N
1634924395.1,286047002.3,N
1634924415.9,286046999.8,N
1634924435.7,286047000.0,N
1634924455.5,286047000.0,N
1634924475.4,286047000.9,N
1634924495.2,286047000.0,N
1634924515.1,286046998.1,N
1634924516.0,286046998.1,N
1634924535.8,286047001.1,N
1634924555.6,286047000.4,N
1634924575.5,286047000.3,N
1634924595.3,286047001.1,N
1634924615.2,286047001.0,N
1634924635.9,286046999.8,N
1634924655.7,286047002.3,N
1634924675.6,286046999.7,N
1634924695.4,286047000.2,N
1634924715.2,286047001.1,N
1634924735.1,286046998.1,N
1634924736.0,286046998.1,N
1634924755.8,286047000.5,N
1634924775.7,286047000.6,N
1634924795.5,286046998.3,N
1634924815.3,286047002.8,N
1634924835.2,286046999.7,N
1634924855.0,286047001.6,N
1634924855.9,286047001.6,N
1634924875.8,286047001.3,N
1634924895.6,286047001.3,N
1634924915.4,286047002.2,N
1634924935.3,286047002.0,N
1634924955.1,286047001.5,N
1634924975.8,286047004.0,Y
1634924995.7,286047001.7,P
1634925015.5,286047002.6,P
1634925035.4,286047001.5,N
1634925055.2,286047001.8,N
1634925075.0,286047004.0,Y
1634925075.9,286047004.0,P
1634925095.8,286047003.9,P
1634925115.6,286047004.4,P
1634925135.5,286047004.0,Y
1634925155.3,286046998.2,P
1634925175.1,286046998.9,N
1634925195.9,286046997.2,N
1634925215.7,286046997.1,N
1634925235.5,286046996.5,N
1634925255.4,286046997.7,N
1634925275.2,286046997.7,N
1634925295.1,286046997.7,N
1634925296.0,286046997.7,N
1634925315.8,286046999.1,N
1634925335.6,286046999.5,N
1634925355.5,286046997.3,N
1634925375.3,286046996.7,N
1634925395.2,286046997.1,N
1634925415.9,286046997.1,N
1634925435.7,286046997.3,N
1634925455.6,286046997.9,N
1634925475.4,286046995.3,Y
1634925495.2,286047001.2,P
1634925515.1,286046998.5,N
1634925516.0,286046998.5,N
1634925535.8,286046998.5,N
1634925555.7,286046998.8,N
1634925575.5,286046998.6,N
1634925595.3,286046998.5,N
